Погода Верховье Лотты

Погода Верховье Лотты : погода сейчас, прогноз погоды и архив. Всё, что Вы хотите узнать о погоде Верховье Лотты!

Поиск расширенной информации на нашем сайте:

Другие новости

Новости СМИ2

Главная страница сайта

Новости сайта

03.07.2017

Напоминаем, что на нашем специализированном сайте Метеоцентр.Азия вы можете получить высокодетализированные автоматические прогнозы погоды по пунктам России, СНГ и мира в авиационном формате (включающие направление и скорость ветра, видимость, явления погоды, количество и форму облачности, нижнюю и верхнюю границу облачности).


Погода Верховье Лотты - сегодня

Время (UTC), дата Ветер
(°,м/с) 
Видим.   Явления Облачность Т
(°С)
Тd
(°С)
f(%) Тe
(°С)
Pmin
(гПа)
dP
(гПа)
Po
(мм)
O2
(г/м3)
Тmin Tmax R s Состояние
почвы
21 17.09.18 240 (ЮЗ) 1-2  н/о    н/о 
+6.4 +4.5 88 +7  997.5  738  290           
00 18.09.18 220 (ЮЗ) 1-2  н/о    н/о 
+4.5 +3 90 +5  997.7  0.1  738  292           
09 18.09.18 270 (З) 2-5  н/о    н/о 
+10 +4.2 67 +10  999.1  0.7  739  287           
21 18.09.18 тихо ()   н/о    н/о 
+2.4 +1.6 94 +2  1003  0.7  742  296           
00 19.09.18 тихо ()   н/о    н/о 
+2.8 +1.5 91 +3  1003.7  0.7  742  296           
09 19.09.18 тихо ()   н/о    н/о 
+10.2 +4.2 66 +10  1004.5  -0.2  743  288           
21 19.09.18 тихо ()   н/о    н/о 
+5.5 +3 84 +6  1002.9  -0.7  742  292           
00 20.09.18 тихо ()   н/о    н/о 
+5 +3.7 91 +5  1001.8  -1.1  741  293           
09 20.09.18 140 (ЮВ) 2-7  н/о    н/о 
+8.8 +7.1 89 +9  994.8  -2.9  736  286           
21 20.09.18 210 (ЮЗ) 2-3  н/о    н/о 
+8 +7.2 95 +8  984.9  0.2  728  284           
00 21.09.18 230 (ЮЗ) 3-9  н/о    н/о 
+8.8 +4.9 76 +8  984.9  -0.1  728  284           
09 21.09.18 240 (ЮЗ) 4-9  н/о    н/о 
+12.4 +4.8 60 +12  989.6  1.8  732  281           
21 21.09.18 210 (ЮЗ) 1-3  н/о    н/о 
+8.6 +4.3 74 +10  994.1  0.4  735  286           
00 22.09.18 180 (Ю) 1-2  н/о    н/о 
+9.5 +6.4 81 +11  992.7  -1.3  734  285           
09 22.09.18 110 (В) 1-3  н/о    н/о 
+12.4 +11.8 96 +18  984.7  -2.9  728  278           
12 22.09.18 270 (З) 1-2  н/о    н/о 
+12 +10.9 93 +16  983.4  -1.4  728  279           
21 22.09.18 190 (Ю) 3-9{10}  н/о    н/о 
+10.4 +6.7 78 +10  980.1  -1.2  725  280           
09 23.09.18 210 (ЮЗ) 3-8{15}  н/о    н/о 
+12 +5 62 +12  980.1  725  279           
18 23.09.18 200 (Ю) 2-5{12}  35000 м  в посл. час снег  10/0 
[]
+7.7 +2.6 70 +8  981.6  726  284    +12.6  0.0     
21 23.09.18 200 (Ю) 2-4  н/о    н/о 
+6.5 +2.8 77 +6  981.5  0.1  726  285           
00 24.09.18 200 (Ю) 3-7  н/о    н/о 
+6.5 +2.1 73 +6  981.8  0.3  726  285           
09 24.09.18 230 (ЮЗ) 2-5  н/о    н/о 
+6.1 +1.4 72 +6  987.4  730  288           
21 24.09.18 270 (З) 1-3  н/о    н/о 
+2.1 -1.7 76 +3  1001.2  3.2  740  296           
00 25.09.18 230 (ЮЗ) 1-3  н/о    н/о 
-0.7 -2.8 86 1003.3  1.8  742  300           
09 25.09.18 250 (З) 2-5  н/о    н/о 
+4.6 -3.4 56 +4  1005.1  743  295           
Время (UTC), дата Ветер
(°,м/с) 
Видим.   Явления Облачность Т
(°С)
Тd
(°С)
f(%) Тe
(°С)
Pmin
(гПа)
dP
(гПа)
Po
(мм)
O2
(г/м3)
Тmin Tmax R s Состояние
почвы

Для получения пояснительной информации подведите курсор к названию столбца.

ПОГОДА Верховье Лотты - архив

Всё, что Вы хотите узнать о погоде Верховье Лотты - удобно и подробно!

Выберите нужную дату (начиная с 1 января 2015* года) и нажмите кнопку "Найти".
Будут отображены архивные сводки погоды по пункту Верховье Лотты, начиная с указанной даты.


Отображать данные в формате CSV (для использования в таблицах Excel)


Внимание! Наш архив погоды предназначен исключительно для личного некоммерческого использования в познавательных целях. Если Вам необходимы официальные справки о состоянии погоды (для производственных, юридических, коммерческих и т.п. целей), обращайтесь в органы Росгидромета.

*Примечание: данная дата относится к архиву по метеостанциям СССР (Россия, СНГ, Балтия).
Архив по метеостанциям Зарубежной Европы и Азии (кроме Китая) хранится 10 дней, по другим регионам земного шара (Китай, Африка, Америка, Австралия, Океания) - 1 день.

Верховье Лотты - район местоположения метеостанции


Название, широта, долгота, высота метеостанции:
Верховье Лотты 68.4°ш. 28.7°д. 120 м над ур. моря [Российская Федерация]

Дополнительная информация

В oтличие oт бoльшинства пoгoдных сайтoв мы публикуем пoдрoбную метеoинфoрмацию в детальнoм прoфессиoнальнoм фoрмате.

Характеристики температуры и влажнoсти вoздуха измеряются на высoте 2 м в тени вдали oт зданий и деревьев.
Скoрoсть ветра измеряется на высoте 10 м (на урoвне рoста челoвека скoрoсть ветра ниже в 1.5-2 раза). Если метеoстанция нахoдится в гoрoде или в лесу, тo скoрoсть ветра занижена на 2-4 м/с пo сравнению с oткрытым местoм. Скoрoсть ветра над акватoриями крупных рек и oзёр, а также на вершинах хoлмoв на 2-5 м/с выше, чем в oбычных услoвиях.
Атмoсфернoе давление в разных тoчках местнoсти мoжет значительнo oтличаться oт давления на метеoстанции, в зависимoсти oт услoвий рельефа (при пoдъёме на 10 м давление пoнижается примернo на 1 мм рт.ст.).